Beaufort MCAS, SC

8:51 PM EDT on July 24, 2017 (GMT -0400)
Beaufort Marine Corps Air Station

Weather History for KNBC - February, 2012

Change the Weather History Date:

Wednesday, February 22, 2012

  Actual Average Record
Temperature  
Mean Temperature 59 °F -  
Max Temperature 72 °F 65 °F 75 °F (2016)
Min Temperature 46 °F 45 °F 48 °F (2014)
Degree Days  
Heating Degree Days 6    
Growing Degree Days 9 (Base 50)    
Moisture  
Dew Point 49 °F    
Average Humidity 85    
Maximum Humidity 100    
Minimum Humidity 53    
Precipitation  
Precipitation 0.00 in - - ()
Sea Level Pressure  
Sea Level Pressure 29.99 in    
Wind  
Wind Speed 4 mph (South)    
Max Wind Speed 13 mph    
Max Gust Speed 23 mph    
Visibility 5 miles    
Events Fog    
Averages and records for this station are not official NWS values.
T = Trace of Precipitation, MM = Missing Value Source: NWS Daily Summary

Daily Weather History Graph

Daily Weather History Graph

Search for Another Location

Airport or City:

Trip Planner

Search our weather history database for the weather conditions in past years. The results will help you decide how hot, cold, wet, or windy it might be!

Date:

Astronomy

Feb. 22, 2012 Rise Set
Actual Time 6:59 AM EST 6:14 PM EST
Civil Twilight 6:34 AM EST 6:39 PM EST
Nautical Twilight 6:05 AM EST 7:07 PM EST
Astronomical Twilight 5:37 AM EST 7:36 PM EST
Moon 7:01 AM EST (2/22) 7:12 PM EST (2/22)
Length of Visible Light 12h 05m
Length of Day
11h 15m
New Moon, 1% of the Moon is Illuminated
Feb 22
New Moon
Feb 29
First Quarter
Mar 8
Full
Mar 14
Last Quarter
Mar 22
New

Hourly Weather History & Observations

Time (EST) Temp. Windchill Dew Point Humidity Pressure Visibility Wind Dir Wind Speed Gust Speed Precip Events Conditions
12:56 AM 51.1 °F - 48.9 °F 92% 30.11 in 10.0 mi Calm Calm - N/A   Clear
1:56 AM 48.9 °F - 46.9 °F 93% 30.09 in 9.0 mi Calm Calm - N/A   Clear
2:08 AM 48.2 °F - 46.4 °F 93% 30.08 in 1.2 mi Calm Calm - N/A   Partly Cloudy
2:10 AM 48.2 °F - 46.4 °F 93% 30.08 in 0.8 mi Calm Calm - N/A   Mist
2:15 AM 46.4 °F - 44.6 °F 93% 30.08 in 0.2 mi Calm Calm - N/A Fog Fog
2:23 AM 46.4 °F - 44.6 °F 93% 30.08 in 0.5 mi Calm Calm - N/A Fog Fog
2:36 AM 48.2 °F - 46.4 °F 93% 30.08 in 1.0 mi Calm Calm - N/A   Mist
2:40 AM 48.2 °F - 46.4 °F 93% 30.07 in 1.8 mi Calm Calm - N/A   Scattered Clouds
2:43 AM 48.2 °F - 46.4 °F 93% 30.07 in 3.0 mi SE 3.5 mph - N/A   Scattered Clouds
2:56 AM 50.0 °F - 48.0 °F 93% 30.07 in 6.0 mi SE 3.5 mph - N/A   Partly Cloudy
3:56 AM 48.9 °F - 46.9 °F 93% 30.04 in 7.0 mi SSE 3.5 mph - N/A   Clear
4:42 AM 46.4 °F 45.2 °F 46.4 °F 100% 30.05 in 2.0 mi South 3.5 mph - N/A   Partly Cloudy
4:44 AM 46.4 °F 45.2 °F 44.6 °F 93% 30.05 in 1.5 mi South 3.5 mph - N/A   Partly Cloudy
4:52 AM 46.4 °F 45.2 °F 44.6 °F 93% 30.05 in 0.8 mi South 3.5 mph - N/A   Mist
4:56 AM 46.9 °F - 46.0 °F 97% 30.05 in 0.8 mi South 3.5 mph - N/A   Mist
5:06 AM 46.4 °F 45.2 °F 44.6 °F 93% 30.05 in 0.5 mi South 3.5 mph - N/A Fog Fog
5:18 AM 46.4 °F 45.2 °F 44.6 °F 93% 30.05 in 1.0 mi South 3.5 mph - N/A   Mist
5:23 AM 46.4 °F 45.2 °F 44.6 °F 93% 30.05 in 0.5 mi South 3.5 mph - N/A Fog Fog
5:26 AM 46.4 °F 45.2 °F 44.6 °F 93% 30.05 in 0.2 mi South 3.5 mph - N/A Fog Fog
5:38 AM 46.4 °F 44.3 °F 44.6 °F 93% 30.05 in 0.5 mi South 4.6 mph - N/A Fog Fog
5:56 AM 46.9 °F - 45.0 °F 93% 30.06 in 0.5 mi South 4.6 mph - N/A Fog Fog
6:04 AM 46.4 °F 44.3 °F 44.6 °F 93% 30.06 in 0.8 mi South 4.6 mph - N/A   Mist
6:06 AM 46.4 °F 44.3 °F 44.6 °F 93% 30.06 in 1.2 mi South 4.6 mph - N/A   Scattered Clouds
6:10 AM 46.4 °F 44.3 °F 44.6 °F 93% 30.05 in 2.0 mi South 4.6 mph - N/A   Partly Cloudy
6:24 AM 46.4 °F 43.5 °F 44.6 °F 93% 30.05 in 3.0 mi South 5.8 mph - N/A   Partly Cloudy
6:37 AM 46.4 °F 44.3 °F 44.6 °F 93% 30.05 in 1.8 mi South 4.6 mph - N/A   Clear
6:45 AM 46.4 °F 44.3 °F 44.6 °F 93% 30.05 in 3.0 mi South 4.6 mph - N/A Fog Shallow Fog
6:56 AM 46.0 °F 43.9 °F 45.0 °F 96% 30.06 in 3.0 mi SSW 4.6 mph - N/A Fog Shallow Fog
7:56 AM 50.0 °F - 48.9 °F 96% 30.06 in 4.0 mi South 4.6 mph - N/A   Scattered Clouds
8:56 AM 57.9 °F - 53.1 °F 84% 30.06 in 10.0 mi South 8.1 mph - 0.00 in   Partly Cloudy
9:56 AM 63.0 °F - 54.0 °F 72% 30.04 in 10.0 mi South 10.4 mph - N/A   Partly Cloudy
10:56 AM 66.0 °F - 53.1 °F 63% 30.02 in 10.0 mi South 12.7 mph - N/A   Scattered Clouds
11:56 AM 70.0 °F - 52.0 °F 53% 29.98 in 10.0 mi SSE 9.2 mph - N/A   Clear
12:56 PM 69.1 °F - 54.0 °F 58% 29.93 in 10.0 mi ESE 9.2 mph - N/A   Clear
1:56 PM 70.0 °F - 54.0 °F 57% 29.88 in 10.0 mi ESE 10.4 mph 17.3 mph N/A   Scattered Clouds
2:56 PM 72.0 °F - 55.0 °F 55% 29.85 in 10.0 mi ESE 10.4 mph - N/A   Mostly Cloudy
3:56 PM 70.0 °F - 57.0 °F 63% 29.83 in 10.0 mi ESE 10.4 mph 17.3 mph N/A   Mostly Cloudy
4:56 PM 66.0 °F - 54.0 °F 65% 29.82 in 10.0 mi SE 10.4 mph 23.0 mph N/A   Clear
5:56 PM 63.0 °F - 53.1 °F 70% 29.81 in 10.0 mi SE 10.4 mph - N/A   Clear
6:56 PM 62.1 °F - 54.0 °F 75% 29.80 in 10.0 mi SSE 11.5 mph 21.9 mph N/A   Clear
7:56 PM 61.0 °F - 55.0 °F 81% 29.78 in 10.0 mi SSE 9.2 mph 18.4 mph N/A   Clear
8:56 PM 61.0 °F - 55.0 °F 81% 29.79 in 10.0 mi SSE 9.2 mph - N/A   Clear
9:56 PM 62.1 °F - 55.9 °F 80% 29.78 in 10.0 mi South 9.2 mph - N/A   Partly Cloudy
10:56 PM 62.1 °F - 57.9 °F 86% 29.77 in 10.0 mi South 11.5 mph 19.6 mph N/A   Clear
11:15 PM 62.6 °F - 59.0 °F 88% 29.76 in 10.0 mi South 10.4 mph - N/A   Mostly Cloudy
11:56 PM 63.0 °F - 59.0 °F 87% 29.75 in 10.0 mi SSE 10.4 mph - N/A   Overcast